AKST,Max TemperatureF,Mean TemperatureF,Min TemperatureF,Max Dew PointF,MeanDew PointF,Min DewpointF,Max Humidity, Mean Humidity, Min Humidity, Max Sea Level PressureIn, Mean Sea Level PressureIn, Min Sea Level PressureIn, Max VisibilityMiles, Mean VisibilityMiles, Min VisibilityMiles, Max Wind SpeedMPH, Mean Wind SpeedMPH, Max Gust SpeedMPH,PrecipitationIn, CloudCover, Events, WindDirDegrees
2012-11-1,37,32,26,25,19,16,69,57,45,29.86,29.80,29.73,10,10,10,9,2,,0.00,1,,163
2012-11-2,46,40,35,39,33,25,93,77,53,29.72,29.63,29.59,10,9,5,17,5,25,0.00,8,,299
2012-11-3,46,40,35,37,36,30,93,78,66,29.76,29.66,29.59,10,10,7,22,10,31,0.00,8,,124
2012-11-4,50,46,42,43,38,36,87,76,66,29.77,29.33,29.00,10,8,3,34,16,52,0.00,8,,119
2012-11-5,44,42,41,39,36,34,81,76,66,30.17,30.02,29.63,10,10,4,18,10,28,0.00,8,,149
2012-11-6,44,42,39,37,35,34,93,77,66,30.03,29.84,29.75,10,10,8,18,11,24,0.00,8,,144
2012-11-7,41,38,35,36,34,30,93,86,81,30.27,30.08,29.85,10,10,7,10,6,,0.00,6,,107
2012-11-8,37,32,28,30,27,23,93,82,65,30.34,30.31,30.28,10,7,0,9,5,,0.00,2,,167
2012-11-9,33,28,24,25,20,16,86,70,55,30.28,30.21,30.14,10,8,1,13,4,17,0.00,0,,117
2012-11-10,37,32,28,28,21,18,70,63,56,30.12,30.00,29.88,10,10,10,17,7,22,0.00,6,,81
2012-11-11,39,37,35,36,33,28,93,83,65,29.87,29.78,29.76,10,10,7,16,10,18,0.00,8,,91
2012-11-12,39,37,35,36,34,30,93,87,81,29.99,29.88,29.79,10,10,7,10,4,,0.00,8,,348
2012-11-13,41,39,37,37,36,36,93,90,81,30.03,30.01,29.96,10,10,7,13,5,18,0.00,8,,103
2012-11-14,44,42,39,37,37,34,93,81,70,30.05,29.94,29.77,10,10,10,23,9,32,0.00,8,,124
2012-11-15,42,40,39,37,35,34,87,80,70,29.89,29.76,29.48,10,10,10,15,9,20,0.00,7,,109
2012-11-16,42,40,37,37,35,34,87,83,70,29.46,29.40,29.31,10,10,7,17,9,24,0.00,8,,121
2012-11-17,39,36,32,36,30,23,93,76,56,29.38,29.13,28.99,10,10,2,16,6,20,0.00,5,,114
2012-11-18,35,32,30,27,24,19,86,69,52,29.32,29.23,29.13,10,10,2,21,14,28,0.00,5,,100
2012-11-19,37,36,35,28,23,19,70,57,48,29.41,29.25,29.12,10,10,10,21,14,25,0.00,7,,99
2012-11-20,35,34,33,25,18,16,70,51,44,29.53,29.46,29.40,10,10,10,23,15,33,0.00,3,,100
2012-11-21,33,30,28,23,19,14,80,63,44,29.98,29.75,29.47,10,8,2,18,12,26,0.00,8,,96
2012-11-22,44,38,32,34,28,21,87,67,56,29.96,29.62,29.38,10,9,4,22,14,32,0.00,8,,91
2012-11-23,44,38,33,36,32,28,87,72,57,29.60,29.58,29.54,10,10,7,25,13,34,0.00,7,,120
2012-11-24,42,38,33,36,33,28,87,81,70,30.15,29.80,29.60,10,8,5,26,17,36,0.00,8,,121
2012-11-25,37,35,33,34,32,28,93,86,81,30.26,30.22,30.15,10,9,7,12,5,16,0.00,8,,91
2012-11-26,35,32,28,32,28,23,93,83,75,30.27,30.22,30.13,10,10,10,13,3,17,0.00,4,,305
2012-11-27,37,32,28,28,26,23,86,75,65,30.12,29.97,29.85,10,10,10,15,2,20,0.00,2,,37
2012-11-28,39,36,33,28,25,21,75,64,52,29.85,29.64,29.46,10,10,10,20,8,26,0.00,8,,92
2012-11-29,33,32,30,25,21,18,80,66,55,29.45,29.38,29.34,10,8,3,22,16,32,0.00,8,,98
2012-11-30,32,31,30,19,16,12,64,55,47,29.39,29.30,29.26,10,10,7,24,16,32,0.00,6,,91